Mitchell, SD

7:15 PM CST on November 20, 2017 (GMT -0600)
Mitchell Municipal

Weather History for KMHE - August, 2013

Change the Weather History Date:

Sunday, August 11, 2013

  Actual Average Record
Temperature  
Mean Temperature 71 °F 73 °F  
Max Temperature 81 °F 84 °F 103 °F (1936)
Min Temperature 60 °F 62 °F 37 °F (1902)
Degree Days  
Heating Degree Days 0 0  
Month to date heating degree days 0 0  
Since 1 June heating degree days 70 40  
Since 1 July heating degree days 20 5  
Cooling Degree Days 6 8  
Month to date cooling degree days 47 95  
Year to date cooling degree days 559 613  
Since 1 June cooling degree days 502 573  
Growing Degree Days 21 (Base 50)    
Moisture  
Dew Point 64 °F    
Average Humidity 79    
Maximum Humidity 100    
Minimum Humidity 58    
Precipitation  
Precipitation 0.00 in 0.09 in 4.66 in (1953)
Month to date precipitation 2.55 0.85  
Year to date precipitation 18.50 14.82  
Snow  
Snow 0.00 in - 0.00 in ()
Month to date snowfall 0.0  
Since 1 June snowfall 0.0  
Since 1 July snowfall 0.0  
Snow Depth 0.00 in    
Sea Level Pressure  
Sea Level Pressure 30.03 in    
Wind  
Wind Speed 5 mph (ENE)    
Max Wind Speed 12 mph    
Max Gust Speed 16 mph    
Visibility 10 miles    
Events      
T = Trace of Precipitation, MM = Missing Value Source: NWS Daily Summary

Daily Weather History Graph

Daily Weather History Graph

Search for Another Location

Airport or City:

Trip Planner

Search our weather history database for the weather conditions in past years. The results will help you decide how hot, cold, wet, or windy it might be!

Date:

Astronomy

Aug. 11, 2013 Rise Set
Actual Time 6:32 AM CDT 8:41 PM CDT
Civil Twilight 6:00 AM CDT 9:12 PM CDT
Nautical Twilight 5:21 AM CDT 9:51 PM CDT
Astronomical Twilight 4:38 AM CDT 10:34 PM CDT
Moon 11:33 AM CDT (8/11) 10:45 PM CDT (8/11)
Length of Visible Light 15h 12m
Length of Day
14h 09m
Waxing Crescent, 22% of the Moon is Illuminated
Aug 11
Waxing Crescent
Aug 14
First Quarter
Aug 20
Full
Aug 28
Last Quarter
Sep 5
New

Hourly Weather History & Observations

Time (CDT) Temp. Heat Index Dew Point Humidity Pressure Visibility Wind Dir Wind Speed Gust Speed Precip Events Conditions
12:53 AM 64.9 °F - 63.0 °F 93% 30.04 in 10.0 mi ESE 6.9 mph - N/A   Mostly Cloudy
1:53 AM 64.9 °F - 63.0 °F 93% 30.02 in 10.0 mi ESE 5.8 mph - N/A   Overcast
2:53 AM 63.0 °F - 62.1 °F 97% 30.02 in 10.0 mi ESE 4.6 mph - N/A   Partly Cloudy
3:53 AM 64.0 °F - 62.1 °F 93% 30.01 in 10.0 mi ESE 5.8 mph - N/A   Scattered Clouds
4:53 AM 63.0 °F - 62.1 °F 97% 29.99 in 10.0 mi SE 9.2 mph - N/A   Partly Cloudy
5:53 AM 63.0 °F - 62.1 °F 97% 30.00 in 10.0 mi Calm Calm - N/A   Clear
6:53 AM 61.0 °F - 60.1 °F 97% 30.01 in 8.0 mi Calm Calm - N/A   Clear
7:53 AM 63.0 °F - 62.1 °F 97% 30.01 in 7.0 mi NNE 5.8 mph - N/A   Clear
8:05 AM 64.4 °F - 62.6 °F 94% 30.03 in 8.0 mi NNE 4.6 mph - N/A   Scattered Clouds
8:17 AM 64.4 °F - 62.6 °F 94% 30.03 in 9.0 mi NNE 5.8 mph - N/A   Mostly Cloudy
8:53 AM 66.9 °F - 64.0 °F 90% 30.03 in 10.0 mi NE 5.8 mph - N/A   Mostly Cloudy
9:10 AM 66.2 °F - 64.4 °F 94% 30.03 in 10.0 mi ENE 8.1 mph - N/A   Scattered Clouds
9:17 AM 68.0 °F - 64.4 °F 88% 30.04 in 10.0 mi NE 8.1 mph - N/A   Mostly Cloudy
9:53 AM 69.1 °F - 64.9 °F 87% 30.04 in 10.0 mi NNE 9.2 mph - N/A   Overcast
10:09 AM 71.6 °F - 64.4 °F 78% 30.05 in 10.0 mi ENE 8.1 mph - N/A   Overcast
10:53 AM 73.0 °F - 66.9 °F 81% 30.04 in 10.0 mi NE 8.1 mph - N/A   Mostly Cloudy
11:07 AM 73.4 °F - 66.2 °F 78% 30.06 in 10.0 mi NE 10.4 mph - N/A   Scattered Clouds
11:53 AM 75.9 °F - 66.9 °F 74% 30.05 in 10.0 mi NE 9.2 mph - N/A   Clear
12:53 PM 77.0 °F - 66.9 °F 71% 30.05 in 10.0 mi NE 8.1 mph - N/A   Scattered Clouds
1:53 PM 77.0 °F - 66.9 °F 71% 30.05 in 10.0 mi NE 8.1 mph - N/A   Mostly Cloudy
2:12 PM 77.0 °F - 66.2 °F 69% 30.06 in 10.0 mi NE 5.8 mph - N/A   Mostly Cloudy
2:53 PM 80.1 °F 82.3 °F 66.9 °F 64% 30.04 in 10.0 mi ENE 5.8 mph - N/A   Partly Cloudy
3:53 PM 81.0 °F 83.0 °F 66.0 °F 60% 30.04 in 10.0 mi NNE 8.1 mph - N/A   Clear
4:53 PM 81.0 °F 82.7 °F 64.9 °F 58% 30.04 in 10.0 mi North 5.8 mph - N/A   Clear
5:53 PM 81.0 °F 82.7 °F 64.9 °F 58% 30.03 in 10.0 mi NNE 5.8 mph - N/A   Clear
6:53 PM 77.0 °F - 64.0 °F 64% 30.02 in 10.0 mi North 5.8 mph - N/A   Clear
7:53 PM 73.9 °F - 66.9 °F 79% 30.01 in 10.0 mi North 4.6 mph - N/A   Clear
8:53 PM 72.0 °F - 64.9 °F 78% 30.02 in 10.0 mi Calm Calm - N/A   Clear
9:53 PM 68.0 °F - 64.0 °F 87% 30.03 in 10.0 mi ESE 5.8 mph - N/A   Clear
10:53 PM 69.1 °F - 63.0 °F 81% 30.05 in 10.0 mi ESE 4.6 mph - N/A   Clear
11:53 PM 66.9 °F - 63.0 °F 87% 30.06 in 10.0 mi SE 4.6 mph - N/A   Clear